Realtime Insider Trading Report - all trades (page 2 of 3)

Insider all trades reported on July 18, 2018


Buys only Buys & sales       Page:  1   2   3 

Note: B: Buy;   S: Sale;   O: Option Exercise.

Company Shares Price   Value($)   Time  
Blucora, Inc. O 34,0004.98169,320 16:33:29
O 20,0004.9899,600 16:33:29
S 49,00037.411,833,236 16:33:29
S 30,00038.061,141,830 16:33:29
Diamondback Energy, Inc. S 5,000128.85644,250 16:33:49
Wiley John & Sons, Inc. S 1,46568.40100,206 16:34:52
Silversun Technologies, Inc. S 1,2003.784,537 16:34:53
S 10,0003.7537,510 16:34:53
Hubspot Inc S 4,671131.80615,637 16:35:11
O 3,81642.72163,008 16:35:11
Liveperson Inc S 6,87522.41154,068 16:35:16
S 1,49322.2033,144 16:35:43
Enlink Midstream, Llc S 115,495,669.000 16:36:35
Enlink Midstream Partners, Lp S 175,657,168.000 16:36:48
Miller Herman Inc B 10038.753,875 16:37:27
Red Hat Inc S 2,305145.00334,225 16:38:00
People's Utah Bancorp S 2,00034.9169,810 16:38:08
Enlink Midstream Partners, Lp S 183,189,051.000 16:38:19
Cadence Design Systems Inc S 100,00045.144,514,200 16:38:25
O 100,00011.621,162,000 16:38:25
Neon Therapeutics, Inc. O 17,2415.8099,997 16:38:46
Genomic Health Inc O 10,00017.18171,800 16:40:27
S 10,00053.09530,890 16:40:27
Penn National Gaming Inc S 5,98736.35217,627 16:40:56
O 5,9878.8853,164 16:40:56
Red Hat Inc S 636145.0092,220 16:41:19
S 9,513145.001,379,385 16:42:24
American Public Education Inc S 15044.506,675 16:43:35
Luna Innovations Inc S 39,4973.40134,289 16:43:50
Extra Space Storage Inc. S 44096.5342,474 16:44:32
S 44094.9141,759 16:44:32
Everbridge, Inc. S 81549.9540,710 16:51:20
Intercontinental Exchange, Inc. S 7,89875.06592,847 16:52:45
O 7,89841.48327,609 16:52:45
Hunt J B Transport Services Inc S 16,269122.001,984,818 16:52:54
Intercontinental Exchange, Inc. O 2,40041.5999,816 16:53:49
Novocure Ltd O 2,3303.598,364 16:54:43
Lendingclub Corp S 25,0004.50112,500 16:57:39
Seres Therapeutics, Inc. S 14,2798.11115,731 16:58:39
Jaguar Health, Inc. B 1,5001.111,668 17:00:32
B 2,2321.192,656 17:00:32
B 7,5001.3610,192 17:00:32
Trade Desk, Inc. S 100,06993.979,403,483 17:00:45
S 62,07293.185,783,868 17:00:45
Walker & Dunlop, Inc. S 8,00057.67461,360 17:00:47
O 8,00017.05136,400 17:00:47
O 8,00017.05136,400 17:00:47
S 8,00057.26458,072 17:00:47
Okta, Inc. S 15,00054.09811,290 17:03:28
Jazz Pharmaceuticals Plc S 700176.06123,242 17:06:36
Instructure Inc S 20,00045.16903,160 17:07:34
O 20,00012.52250,400 17:07:34
Verisk Analytics, Inc. O 3,09033.30102,896 17:09:41
S 3,090112.20346,698 17:09:41
Carmax Inc O 84,25842.683,596,131 17:10:42
S 74,12977.155,719,052 17:10:42
Ollie's Bargain Outlet Holdings, Inc. S 375,00072.3427,129,375 17:12:56
Novocure Ltd S 30,000.000 17:14:52
Cargurus, Inc. S 3,32537.06123,224 17:21:48
S 3,32537.36124,222 17:21:48
Standard Diversified Inc. S 1,70014.0023,800 17:22:29
S 2,90013.9740,518 17:22:29
Cargurus, Inc. S 7,50037.07278,025 17:23:15
J M Smucker Co S 2,500111.02277,550 17:23:17
Cerecor Inc. B 17,8001.4225,258 17:24:21
B 9,7191.4313,927 17:24:21
B 2,5001.453,622 17:24:21
Vertex Pharmaceuticals Inc / Ma S 23,375182.004,254,250 17:32:43
O 23,375131.893,082,928 17:32:43
Quinstreet, Inc S 50,81914.10716,395 17:33:22
S 71,69414.091,010,096 17:33:22
S 107,72514.081,516,983 17:33:22
Broadcom Inc. O 20,00038.99779,800 17:37:08
S 20,000202.604,051,960 17:37:08
Wayside Technology Group, Inc. S 2,00014.2528,500 17:38:15
S 70014.259,975 17:38:15
Lions Gate Entertainment Corp /cn/ S 13,36923.97320,414 17:40:23
S 23,63123.62558,116 17:40:23
Vertex Pharmaceuticals Inc / Ma S 860179.85154,671 17:44:37
O 86096.8783,308 17:44:37
Urban Outfitters Inc O 33,333.000 17:44:51
Dexcom Inc S 10,00099.94999,440 17:50:20
S 5,00099.92499,590 17:50:47
Flex Ltd. S 35515.065,345 17:51:34
Mimecast Ltd O 30,0009.21276,300 17:56:06
S 30,00042.091,262,820 17:56:06
Carrizo Oil & Gas Inc S 8,00027.43219,432 17:57:51
Quotient Technology Inc. S 50,00014.12706,250 18:00:52
Intersect Ent, Inc. S 20,00033.08661,680 18:09:12
O 5,00013.0565,250 18:09:12
Crimson Wine Group, Ltd B 17,6009.31163,856 18:11:55
B 2,4009.2522,200 18:11:55
Switch, Inc. S 100,00013.151,314,800 18:20:02
Orion Group Holdings Inc S 10,0009.0090,010 18:20:41
Tabula Rasa Healthcare, Inc. S 8,00067.53540,240 18:21:35
S 8,00067.53540,240 18:21:59
Codexis Inc S 7,50015.53116,460 18:22:00
S 7,50015.27114,555 18:22:00
Endurance International Group Holdings, Inc. S 80110.708,570 18:24:34
Jagged Peak Energy Inc. S 15,62513.95217,968 18:27:06
Note: B: Buy;   S: Sale;   O: Option Exercise.

Page:  1   2   3